Regional Weather Roundup
Issued by NWS

Home | Current Version | Previous Version | Graphics & Text | Print | Product List | Glossary On
Versions: 1 2 3 4 5 6 7 8 9 10 11 12 13 14 15 16 17 18 19 20 21 22 23 24 25 26 27 28 29 30 31 32 33 34 35 36 37 38 39 40 41 42 43 44 45 46 47 48 49 50
000
ASUS43 KIND 241159
RWRIN

WEATHER ROUNDUP FOR INDIANA
NATIONAL WEATHER SERVICE INDIANAPOLIS IN
700 AM EST FRI FEB 24 2017

NOTE: "FAIR" INDICATES FEW OR NO CLOUDS BELOW 12,000 FEET WITH NO
SIGNIFICANT WEATHER AND/OR OBSTRUCTIONS TO VISIBILITY.

* - STATION DOES NOT REPORT WEATHER SUCH AS PRECIPITATION OR FOG.

+ - STATION NOT QUALITY CONTROLLED BY THE NATIONAL WEATHER SERVICE.
    USE DATA WITH CAUTION...ESPECIALLY DEWPOINT AND RELATIVE
    HUMIDITY OBSERVATIONS.

INZ001>003-010>013-019-020-241300-
NORTHWEST INDIANA

CITY           SKY/WX    TMP DP  RH WIND       PRES   REMARKS
GARY /AIRPORT/ CLOUDY    43  43 100 CALM      29.49F FOG
MICHIGAN CITY+ CLOUDY    59  57  94 S10G16    29.48F
RENSSELAER +   CLOUDY    59  55  88 S14G20    29.51R

$$

LMZ046-743>745-241300-
SOUTHERN LAKE MICHIGAN

STATION/POSITION TIME  TEMP    WIND        PRES    WAVE
                       AIR SEA DIR/SP/G            HT
                 (UTC) (F)     (DEG/KT/KT) (MB)    (FT)
BURNS HARBOR     1140   54     180/ 10/ 18  998.6F
MICHIGAN CITY    1130   57     140/ 12/ 14   N/A

$$

INZ004-005-014>016-021>024-241300-
NORTH CENTRAL INDIANA

CITY           SKY/WX    TMP DP  RH WIND       PRES   REMARKS
ELKHART        MOCLDY    52  50  93 SE7       29.53
GOSHEN         CLOUDY    52  48  86 SE14      29.53F
6HR MIN TEMP:  50; 6HR MAX TEMP:  54; 6HR PCP:  0.01;

SOUTH BEND     CLOUDY    52  52 100 SE9       29.51F FOG
6HR MIN TEMP:  48; 6HR MAX TEMP:  53; 6HR PCP:  0.03;


$$

INZ006>009-017-018-025>027-241300-
NORTHEAST INDIANA

CITY           SKY/WX    TMP DP  RH WIND       PRES   REMARKS
ANGOLA *+      CLOUDY    46  46 100 SE9       29.58F VSB 1
FORT WAYNE     CLOUDY    52  50  93 SE10      29.58F
6HR MIN TEMP:  47; 6HR MAX TEMP:  55; 6HR PCP:  0.09;

KENDALLVILLE + CLOUDY    47  47 100 SE10      29.58F FOG

$$

INZ028-029-035-036-043>045-051>053-241300-
WEST CENTRAL INDIANA

CITY           SKY/WX    TMP DP  RH WIND       PRES   REMARKS
LAFAYETTE      CLOUDY    60  55  83 S8        29.53F
6HR MIN TEMP:  55; 6HR MAX TEMP:  60;

TERRE HAUTE    PTCLDY    62  54  74 S18G26    29.58R
6HR MIN TEMP:  60; 6HR MAX TEMP:  64;


$$

INZ030>032-037>040-046>048-054>057-064-065-241300-
CENTRAL INDIANA

CITY           SKY/WX    TMP DP  RH WIND       PRES   REMARKS
COLUMBUS       CLEAR     59  57  94 S14       29.64
INDIANAPOLIS   PTCLDY    60  54  80 S15       29.58F
6HR MIN TEMP:  56; 6HR MAX TEMP:  60;

-EAGLE CREEK   PTCLDY    59  53  80 S6        29.58F
6HR MIN TEMP:  55; 6HR MAX TEMP:  62;

KOKOMO +       PTCLDY    57  53  86 S16       29.57F
6HR MIN TEMP:  56; 6HR MAX TEMP:  59; 6HR PCP: TRACE;

MT COMFORT *+  CLEAR     57  52  82 S10G17    29.61F
SHELBYVILLE    CLEAR     59  53  80 S14       29.62R
6HR MIN TEMP:  59; 6HR MAX TEMP:  62;


$$

INZ033-034-041-042-049-050-058-059-241300-
EAST CENTRAL INDIANA

CITY           SKY/WX    TMP DP  RH WIND       PRES   REMARKS
MUNCIE         MOCLDY    60  53  77 S17G23    29.60F
6HR MIN TEMP:  59; 6HR MAX TEMP:  61;


$$

INZ060-061-067>069-081>083-085>088-241300-
SOUTHWEST INDIANA

CITY           SKY/WX    TMP DP  RH WIND       PRES   REMARKS
EVANSVILLE     CLEAR     63  55  75 S13       29.62F
6HR MIN TEMP:  62; 6HR MAX TEMP:  64;

HUNTINGBURG *+ CLEAR     62  55  77 S20       29.63F
6HR MIN TEMP:  62; 6HR MAX TEMP:  64;


$$

INZ062-063-066-070>080-084-089>092-241300-
SOUTH CENTRAL AND SOUTHEAST INDIANA

CITY           SKY/WX    TMP DP  RH WIND       PRES   REMARKS
BLOOMINGTON    CLEAR     64  54  69 S21G28    29.61F
6HR MIN TEMP:  59; 6HR MAX TEMP:  65;

MADISON *+     MOCLDY    59  52  77 S8        29.71S
SEYMOUR +      PTCLDY    63  54  72 S14       29.65F

$$




USA.gov is the U.S. government's official web portal to all federal, state and local government web resources and services.